COSMOS 2251 DEB, 33980

Orbit data source: Space-Track

COSMOS 2251 DEB, 33980 is space debris in LEO originally from a launch on Wed, 16 Jun 1993 UTC launched from the Plesetsk Missile And Space Complex (PKMTR). The debris from Iridium 33, an American commercial communications satellite, has been tracked extensively since its accidental collision with the defunct Russian satellite Cosmos 2251 in 2009. This event, occurring at high speed in low Earth orbit (LEO), generated thousands of pieces of space debris, significantly increasing the risk of further collisions. The Iridium 33 debris cloud has impacted space traffic management and orbital debris mitigation strategies, making it a subject of ongoing study in space situational awareness.

Loading next visibility...
Identifier
33980, 1993-036FP
Orbit
LEO
Country
Flag of CISCIS
Related business
Manufacturer
Unknown
Mission
Spacecraft
Bus & Motor
Unknown
Mass
Unknown
Launch date (UTC)
1993-06-16 (33 years ago)
Launch vehicle
Unknown
Launch site
Plesetsk Missile And Space Complex (PKMTR)
Object type
Payload
Rocket body
Debris
Shape & HBR
Unknown shape, 0.2 m
Radar Cross Section
Medium (>0.1 m² and <1 m²)

Expand to show TLE details & history
Last TLE update: 13 hours ago

TLE from 13 hours ago
0 COSMOS 2251 DEB
1 33980U 93036FP  26175.10848293  .00001873  00000-0  39616-3 0  9997
2 33980  74.0193  50.4710 0028994 144.7775 336.5796 14.59772249916154
Epoch: 2026-06-24T02:36Z
TLE epoch observation values (Epoch: 2026-06-24T02:36:12.925Z)
Latitude
55.40502°
Longitude
-105.24498°
Altitude
683.95 km
Speed
7.53 km/s
True Right ascension
13h 44m 19s
True Declination
55° 14' 33"
Sunlit
Object was in daylight at epoch
Visualization orbit readout
Latitude
Unknown
Longitude
Unknown
Altitude
Unknown
Speed
Unknown
Apparent Right ascension
Unknown
Apparent Declination
Unknown
Sunlit
N/A
Visualization observer readout
Local Sidereal Time
03:13:04
Azimuth
Unknown
Elevation
Unknown
Doppler factor
Unknown
Orbital elements
Apogee altitude
712.006 km
Perigee altitude
671.011 km
Semi-major axis
7,069.646 km
Eccentricity
0.0029
Inclination
74.0193°
RAAN
50.471°
Arg. of periapsis
144.7775°
True anomaly
336.4471°
Mean anomaly
336.5796°
Eccentric anomaly
336.51339°
Mean motion
3.65129 °/min
Orbital period
98.6 mins
BSTAR
0.00039616
Loading maneuver chart data...
Computing Atmospheric mass density...

Documentation

Showing up to 5 results
|